Home > Weather > Detmold > Past weeks

Flag for Germany Past Weather in Detmold, North Rhine-Westphalia, Germany — Yesterday and Last 2 Weeks

Now
64 °F

Clear.


Feels Like: 64 °F
Forecast: 61 / 72 °F
Wind: 6 mph from Southwest

Location: Paderborn / Lippstadt

Current Time: Jul 27, 2016 at 11:08:59 PM

Latest Report: Jul 27, 2016 at 10:50 PM


Visibility: 10 mi

Pressure: 30.04 "Hg

Humidity: 78%

Dew Point: 57 °F

Location of DetmoldLocation

Past Weather in Detmold — Graph

°F

Detmold Temperature Yesterday

Maximum temperature yesterday: 75 °F (at 1:20 PM)
Minimum temperature yesterday: 63 °F (at 5:50 AM)
Average temperature yesterday: 67 °F

High & Low Weather Summary for the Past Weeks

 TemperatureHumidityPressure
High91 °F (Jul 20, 5:20 PM)100% (Jul 14, 5:20 AM)30.27 "Hg (Jul 14, 5:20 AM)
Low50 °F (Jul 14, 6:50 AM)23% (Jul 20, 5:20 PM)29.89 "Hg (Jul 12, 9:20 PM)
Average67 °F71%30.09 "Hg
* Reported Jul 12 9:20 PM — Jul 27 9:50 PM, Detmold, Weather by CustomWeather, © 2016

Note: Actual official high and low records may vary slightly from our data, if they occured in-between our weather recording intervals... More about our weather records

Advertising

Detmold Weather History for the Previous 24 Hours

Scroll right to see more
 ConditionsComfort  
Time TempWeatherWind HumidityBarometerVisibility
9:50 PM
Wed, Jul 27
66 °FPassing clouds.6 mph68%30.04 "HgN/A
9:20 PM66 °FPassing clouds.5 mph64%30.01 "HgN/A
8:50 PM68 °FSunny.6 mph60%30.01 "Hg10 mi
8:20 PM70 °FPassing clouds.6 mph57%30.01 "HgN/A
7:50 PM70 °FPassing clouds.5 mph57%30.01 "HgN/A
7:20 PM72 °FPassing clouds.7 mph53%30.01 "HgN/A
6:50 PM70 °FPassing clouds.8 mph53%30.01 "HgN/A
6:20 PM72 °FPassing clouds.8 mph50%30.01 "HgN/A
5:50 PM72 °FScattered clouds.7 mph47%30.01 "HgN/A
5:20 PM70 °FScattered clouds.10 mph57%30.01 "HgN/A
4:50 PM70 °FScattered clouds.9 mph57%30.01 "HgN/A
4:20 PM70 °FScattered clouds.13 mph57%30.01 "HgN/A
3:50 PM72 °FScattered clouds.13 mph57%30.01 "HgN/A
3:20 PM72 °FScattered clouds.10 mph53%30.01 "HgN/A
2:50 PM72 °FScattered clouds.8 mph57%30.01 "HgN/A
2:20 PM72 °FScattered clouds.9 mph57%30.01 "HgN/A
1:50 PM70 °FScattered clouds.9 mph60%30.01 "HgN/A
1:20 PM72 °FPassing clouds.9 mph61%30.01 "HgN/A
12:50 PM72 °FPassing clouds.7 mph61%30.01 "HgN/A
12:20 PM70 °FScattered clouds.7 mph64%30.04 "HgN/A
11:50 AM72 °FPassing clouds.5 mph61%30.04 "HgN/A
11:20 AM70 °FPassing clouds.6 mph60%30.04 "HgN/A
10:50 AM68 °FPassing clouds.6 mph73%30.04 "HgN/A
10:20 AM66 °FClear.5 mph78%30.04 "Hg6 mi
9:50 AM66 °FClear.5 mph78%30.04 "Hg4 mi
9:20 AM64 °FClear.3 mph83%30.04 "Hg4 mi
8:50 AM63 °FClear.3 mph88%30.04 "Hg4 mi
8:20 AM63 °FSunny.3 mph88%30.04 "Hg10 mi
7:50 AM61 °FPassing clouds.3 mph94%30.04 "HgN/A
7:20 AM61 °FClear.3 mph94%30.04 "Hg5 mi
6:50 AM59 °FClear.5 mph94%30.04 "Hg4 mi
6:20 AM59 °FClear.2 mph94%30.07 "Hg4 mi
5:50 AM59 °FClear.2 mph94%30.07 "Hg4 mi
5:20 AM59 °FClear.3 mph94%30.07 "Hg5 mi
4:50 AM59 °FPassing clouds.2 mph94%30.07 "HgN/A
4:20 AM61 °FPassing clouds.2 mph88%30.07 "HgN/A
3:50 AM61 °FPassing clouds.2 mph88%30.07 "HgN/A
3:20 AM61 °FPassing clouds.5 mph94%30.09 "HgN/A
2:50 AM61 °FPassing clouds.3 mph94%30.09 "HgN/A
2:20 AM61 °FPassing clouds.3 mph94%30.09 "HgN/A
1:50 AM63 °FPassing clouds.2 mph88%30.09 "HgN/A
1:20 AM63 °FPassing clouds.5 mph88%30.09 "HgN/A
12:50 AM63 °FPassing clouds.2 mph88%30.09 "HgN/A
12:20 AM63 °FLight rain. Passing clouds.2 mph88%30.12 "HgN/A
11:50 PM
Tue, Jul 26
63 °FLight rain. Passing clouds.3 mph88%30.12 "Hg6 mi
11:20 PM63 °FPassing clouds.1 mph94%30.12 "HgN/A
Weather by CustomWeather, © 2016

See weather overviewHow to use our weather pages